RH
26 25 25 24 24 23 23 22 21 20 19 18 17 17 16 15 13 10 9 8 8 7 7 6 6 7 6 7 7 7 7 7 7 6 6 5 5 4 5 5 6 8 10 18 30 38 45 47 45 42 42 44 45 47 51 55 56 58 65 72 71 62 60 56 52 51 50 48 47 45 43 45 46 45 46 43 42 47 49 51 54 54 53 52 51 50 54 59
28 27 27 26 25 25 24 23 23 22 20 19 18 18 17 17 16 14 12 10 9 8 7 7 6 7 6 6 6 7 7 7 7 6 7 7 5 5 4 5 6 7 11 20 28 38 45 46 45 42 41 42 43 45 50 53 54 56 65 71 68 63 60 57 55 53 51 50 49 46 42 44 48 46 45 45 42 44 48 52 53 55 55 54 53 52 54 56
28 28 28 27 27 26 25 24 24 23 21 21 19 18 18 17 17 16 15 13 11 9 8 8 6 6 6 6 6 6 7 7 7 7 7 7 6 5 5 4 5 5 10 17 22 32 40 44 44 41 40 39 40 43 47 51 53 53 61 69 67 64 62 60 59 56 52 50 49 48 43 43 48 48 45 46 45 44 47 50 51 55 56 56 55 54 55 54
28 28 27 27 27 27 26 25 24 24 22 21 20 19 19 18 18 17 17 16 14 12 10 8 7 7 7 6 6 6 6 7 8 7 7 7 6 6 6 4 5 5 9 14 19 26 33 40 43 41 38 37 39 43 45 48 52 53 56 63 66 66 64 61 60 57 52 50 51 49 44 43 44 43 44 48 48 45 46 48 49 54 56 56 55 55 56 55
27 27 27 27 27 27 26 26 25 24 23 22 21 20 20 19 19 18 17 17 16 14 12 10 8 7 7 6 6 5 6 7 8 7 7 7 7 6 5 5 5 4 9 14 17 22 28 36 40 40 37 36 39 41 44 47 49 51 52 57 64 66 64 63 61 57 52 50 51 49 47 47 42 38 41 49 48 43 42 43 45 50 53 54 55 54 56 55
28 27 27 27 26 26 26 26 26 25 24 23 22 21 21 20 19 18 18 17 17 16 14 12 10 8 7 7 6 5 6 7 8 8 8 8 7 6 5 6 5 6 11 13 15 19 24 30 33 35 36 37 40 40 43 44 46 49 51 54 60 63 64 63 61 56 52 49 49 49 47 45 41 39 39 44 48 43 41 39 39 44 49 51 52 52 53 54
26 26 26 26 26 25 25 25 25 25 25 24 23 22 22 21 20 19 18 18 17 17 16 14 12 9 8 7 6 6 7 6 7 9 9 9 8 7 6 6 5 9 13 12 13 18 22 26 29 32 33 35 38 40 41 41 42 46 50 55 58 61 62 61 59 54 51 48 47 47 44 41 41 43 41 41 48 45 40 39 37 40 45 47 49 49 49 50
22 23 23 23 23 23 23 23 23 24 24 23 23 23 23 22 21 20 19 19 18 17 16 15 13 11 9 8 7 8 7 6 7 8 9 9 9 8 8 7 7 11 14 11 12 16 20 24 27 30 30 32 36 39 41 40 42 43 45 50 54 58 60 59 58 55 52 49 46 43 41 40 39 43 43 42 48 44 38 40 38 38 40 42 46 48 46 46
16 17 17 18 19 20 20 20 21 22 22 22 22 22 23 22 22 21 20 19 18 18 17 15 14 12 10 9 9 8 6 7 7 7 8 9 9 8 8 8 8 12 14 11 12 14 17 21 25 28 29 33 36 38 39 40 45 46 43 46 50 55 59 59 57 54 53 51 47 42 39 40 38 40 41 40 45 42 37 39 39 39 39 39 42 45 47 46
11 12 12 13 14 15 16 17 18 19 20 20 21 22 22 22 22 21 21 20 19 18 17 16 14 13 12 10 10 8 6 8 8 7 7 8 8 8 8 9 9 13 14 12 12 12 14 18 22 25 28 35 38 37 37 38 47 50 44 46 48 52 56 57 56 53 52 50 45 41 38 36 36 37 38 38 39 38 35 37 40 40 39 38 39 43 47 48
9 9 9 10 11 12 13 14 14 16 17 18 19 21 21 22 22 22 22 21 19 17 16 15 14 13 12 12 11 8 7 8 8 8 7 7 8 7 9 9 9 12 14 12 12 11 12 15 19 23 26 33 36 36 36 37 44 48 45 46 47 49 53 54 54 51 49 47 43 39 36 34 35 35 37 39 38 35 34 35 39 40 40 40 40 43 47 48
9 9 8 8 9 9 10 11 12 13 14 15 17 19 21 21 22 22 21 20 19 18 17 15 15 14 13 13 12 9 9 9 8 8 8 7 8 9 11 10 10 12 14 13 12 11 11 13 18 21 23 29 35 36 36 37 39 41 41 44 48 48 49 50 52 50 47 46 43 38 35 34 36 35 35 38 38 37 34 34 37 39 41 42 42 45 47 47
9 9 9 8 8 8 8 9 9 10 11 12 14 16 19 21 22 22 21 21 20 19 18 17 17 17 16 16 12 8 9 9 8 8 9 10 12 13 13 13 13 14 14 13 12 12 11 12 15 19 23 27 33 35 34 36 38 38 38 41 46 46 46 48 50 49 46 46 43 40 39 38 37 36 35 37 38 38 36 34 36 37 40 43 43 45 47 46
8 8 8 8 8 8 8 8 8 8 9 10 11 15 17 19 21 21 22 22 21 22 21 20 20 19 19 17 12 9 9 9 8 9 10 12 14 13 13 15 16 15 14 13 13 13 11 12 12 17 24 26 30 34 32 35 38 38 38 38 42 43 43 45 48 49 47 46 44 42 43 43 42 39 36 36 37 37 38 38 36 35 38 42 43 44 47 46
7 7 7 7 7 7 8 9 9 8 8 8 10 14 16 17 19 20 22 23 23 23 22 22 23 23 21 17 13 11 10 9 8 10 10 11 13 13 14 16 16 15 13 12 13 13 12 13 14 19 26 25 27 31 29 32 35 36 36 35 38 41 41 42 46 49 48 46 44 44 43 43 43 43 38 36 37 36 39 41 39 37 37 40 43 44 46 47
7 7 7 6 6 6 7 7 8 9 8 8 10 13 14 14 16 19 21 24 25 25 23 25 24 23 23 18 15 14 12 10 9 11 12 12 13 13 15 16 16 15 13 11 13 15 15 16 18 23 28 24 23 27 27 29 32 33 34 34 35 38 39 41 45 49 49 45 43 44 44 43 43 43 40 37 36 37 38 41 42 42 40 39 41 43 45 47
8 8 7 7 6 6 6 6 7 8 8 9 12 12 12 13 15 17 20 22 26 26 26 28 26 23 22 18 17 16 14 12 9 10 12 13 12 12 15 16 15 13 12 12 14 16 18 18 21 25 26 23 21 23 24 25 27 29 31 32 34 38 40 41 43 46 47 44 42 44 45 45 44 42 41 38 36 38 39 41 42 44 46 45 43 42 42 45
8 8 7 7 7 6 6 6 6 6 7 9 11 12 12 13 13 16 22 25 26 27 27 28 28 26 23 19 18 17 15 14 12 11 11 12 12 12 14 15 15 13 13 14 14 16 17 19 24 24 22 21 20 20 21 22 24 26 27 29 33 38 41 42 43 43 45 44 42 42 43 44 44 41 40 39 37 38 39 40 41 43 46 48 48 45 41 42
7 7 7 7 7 7 6 6 6 6 7 8 8 11 14 14 14 20 26 27 26 26 25 26 27 25 22 20 20 18 17 16 15 13 11 12 12 13 14 15 16 13 12 14 15 17 17 18 23 22 17 18 17 17 18 20 23 23 24 28 32 37 41 43 43 41 42 42 40 41 40 40 41 39 40 40 38 37 38 39 42 43 45 48 50 48 45 43
8 7 7 6 6 6 6 6 6 6 7 7 7 11 15 15 15 19 22 21 20 20 19 22 24 24 23 22 21 19 19 18 16 15 13 12 12 13 15 15 17 15 12 13 15 17 17 18 21 18 14 14 15 15 17 18 20 21 22 26 30 35 39 43 43 40 42 43 40 40 39 38 38 38 40 40 38 39 39 39 41 43 47 50 51 50 49 46
9 8 8 7 6 6 6 6 6 7 7 8 10 13 16 16 14 16 18 16 15 16 16 18 20 23 24 23 23 21 20 19 17 15 14 14 13 14 15 15 16 16 14 13 14 16 16 16 17 15 13 13 13 13 15 15 17 21 24 26 29 31 37 42 42 40 42 42 40 40 39 38 39 39 39 38 39 40 39 39 39 42 47 52 54 53 51 47
10 9 8 8 7 6 6 6 6 7 7 11 15 15 17 18 16 17 20 16 14 15 15 15 16 19 22 23 25 24 21 20 18 16 15 15 14 15 15 16 16 16 16 14 15 16 16 15 13 13 12 12 12 12 12 14 15 18 22 25 26 27 33 39 40 41 43 42 40 39 39 39 39 39 37 36 38 40 39 38 37 39 45 50 54 54 51 47
10 10 9 8 7 7 7 6 7 7 8 13 17 16 16 17 17 18 20 18 15 13 13 14 15 16 20 22 24 24 23 21 19 17 17 15 14 15 16 16 16 17 17 15 15 17 16 13 11 11 11 12 12 13 12 12 13 14 17 20 22 24 30 36 39 41 42 40 39 38 35 36 38 37 36 36 38 39 38 37 36 36 40 47 51 50 48 46
10 9 9 9 7 8 7 7 8 8 11 15 16 17 15 15 17 18 19 17 13 11 12 13 13 14 17 20 22 24 24 22 20 19 18 17 15 15 17 16 16 17 18 16 16 16 14 12 11 11 11 13 14 13 12 11 10 11 12 15 18 22 25 32 37 38 40 40 38 37 35 34 37 38 37 36 37 38 38 37 36 35 36 41 45 46 44 43
9 8 8 8 8 8 7 9 11 10 14 17 16 15 13 14 16 17 19 16 11 10 11 12 12 13 14 17 21 22 23 23 22 20 19 18 16 16 17 17 17 17 17 17 17 16 14 12 13 12 11 14 14 12 11 10 9 9 10 11 14 19 22 27 31 33 39 42 40 39 38 34 35 37 37 37 39 39 38 38 36 35 36 37 40 43 42 41
8 8 7 7 8 7 8 12 12 10 14 16 15 13 12 14 14 17 21 17 12 10 9 10 12 12 13 15 18 21 23 22 22 22 19 19 18 17 18 18 17 16 16 18 17 15 14 13 14 13 13 15 13 10 10 10 9 8 8 10 11 15 18 22 27 29 35 40 41 41 38 33 32 35 36 37 41 40 38 38 36 35 36 37 39 40 39 40
9 9 7 7 8 8 9 12 11 13 16 15 13 12 12 14 14 19 23 16 12 11 10 11 13 13 13 14 17 21 22 21 22 23 20 19 19 18 19 18 17 16 16 18 18 16 15 14 16 15 14 14 12 10 10 11 10 8 7 9 10 12 14 18 23 27 29 34 38 39 37 34 30 32 35 37 40 41 39 37 36 35 35 36 39 38 37 38
10 10 8 7 7 9 11 11 12 16 17 15 13 12 12 14 16 23 24 16 12 13 12 13 14 14 14 14 16 19 20 20 22 22 21 21 19 18 19 19 18 18 17 17 18 16 16 15 16 16 14 13 11 9 10 11 10 8 8 10 11 11 12 14 17 21 24 28 33 33 34 34 27 27 33 35 37 40 39 35 34 34 34 35 37 35 35 36
10 9 9 7 6 9 9 10 13 16 15 14 13 12 13 17 20 24 26 19 13 13 13 14 15 14 15 15 16 17 19 20 21 22 22 22 19 19 20 19 19 18 17 17 17 16 16 16 16 17 15 12 11 10 10 12 11 9 9 12 11 10 10 11 13 16 20 24 24 26 30 30 24 23 28 32 34 35 35 34 34 34 33 34 35 34 35 36
10 9 10 8 7 9 9 12 17 14 12 12 11 12 16 21 24 24 23 18 13 14 15 13 15 15 15 16 16 17 18 19 19 21 23 22 20 20 21 21 20 19 17 17 17 16 15 16 17 17 15 11 11 12 11 11 11 10 11 12 11 10 9 10 11 13 18 19 18 20 24 25 22 20 22 28 30 31 32 32 33 34 32 32 34 35 34 35
10 9 10 8 8 10 10 13 14 10 9 10 10 12 18 23 23 22 20 15 12 16 18 16 16 16 16 17 17 17 18 19 19 20 22 23 22 21 23 23 21 20 19 17 17 16 15 16 17 16 15 12 12 13 12 12 12 12 12 12 11 12 13 13 14 13 15 16 15 16 18 20 18 16 18 21 24 28 30 31 31 34 33 32 33 34 33 32
11 10 10 9 9 11 13 12 10 8 7 9 10 12 20 24 21 21 18 13 15 21 21 19 20 18 18 18 18 17 18 19 19 19 21 23 23 22 21 22 21 21 19 17 17 16 14 15 16 16 15 14 13 13 13 14 12 12 13 13 14 17 18 18 16 15 14 13 13 13 15 15 14 13 15 17 18 23 27 29 29 31 33 32 32 33 31 31
11 10 10 10 11 14 15 12 9 9 7 9 11 13 20 24 21 20 16 13 22 27 24 23 22 20 19 19 19 18 18 19 19 19 21 23 25 24 22 22 22 21 19 18 18 16 14 14 15 16 15 14 13 13 14 14 12 12 13 14 15 18 22 21 18 16 16 13 12 13 14 13 11 11 13 13 15 19 23 27 28 29 30 32 33 32 31 31
12 11 11 12 15 16 15 13 10 9 9 10 12 14 20 23 19 20 22 24 29 28 26 26 23 21 20 20 20 19 19 19 19 19 21 24 25 25 24 24 22 22 21 21 19 17 16 15 14 15 15 14 12 12 13 13 13 12 11 13 15 17 20 20 17 15 15 13 13 13 13 11 9 11 11 11 14 16 19 23 26 28 29 30 32 31 29 31
14 13 13 16 20 19 17 15 11 11 14 13 13 16 20 19 16 22 32 37 35 29 25 25 24 23 23 21 21 21 21 20 18 20 21 23 25 25 24 24 23 23 22 22 21 18 17 15 13 14 14 13 13 11 12 14 14 12 10 12 14 13 14 16 15 13 13 12 13 13 12 8 8 10 11 12 13 15 17 21 24 27 28 29 30 30 28 30
16 15 17 21 22 20 19 18 16 16 17 15 14 16 17 17 23 33 42 42 36 32 26 23 23 25 25 24 24 24 24 22 20 21 21 22 25 25 25 25 24 24 23 23 22 20 18 17 15 15 15 14 14 12 12 13 14 13 12 12 12 10 11 13 14 14 14 14 13 13 11 9 8 9 10 11 13 15 16 19 23 26 28 29 30 29 29 30
18 17 21 24 23 21 21 21 21 22 20 16 17 18 18 21 28 38 45 42 36 33 30 27 26 28 29 31 30 28 26 24 22 22 21 22 24 26 27 26 25 25 25 24 24 21 20 19 17 16 16 15 14 14 13 12 13 15 14 11 11 12 12 14 15 15 14 13 10 9 10 10 9 9 9 10 12 14 16 18 21 25 27 29 29 30 30 30
22 22 23 25 23 23 24 24 24 26 25 23 23 22 21 25 29 34 39 38 34 32 32 31 30 31 34 37 36 32 29 27 25 24 22 22 25 27 27 27 26 25 25 25 26 23 21 21 20 17 16 16 16 15 15 14 13 15 15 13 13 14 13 14 16 15 15 14 11 8 8 9 9 9 10 10 11 13 15 18 20 22 26 27 28 30 31 30
30 27 25 25 24 25 26 25 27 33 37 37 34 31 32 35 34 35 36 35 33 31 31 31 32 33 35 38 39 35 32 32 30 27 25 25 27 27 26 27 27 26 26 27 27 25 22 22 23 19 16 17 17 16 15 15 15 15 16 16 15 15 14 14 13 11 13 15 13 11 9 9 9 8 7 9 11 12 13 15 17 20 23 25 27 29 31 31
32 29 28 26 26 27 27 27 35 43 46 46 45 44 45 43 37 36 37 36 34 32 31 33 38 41 39 38 39 36 35 36 33 31 30 29 29 29 26 27 28 27 28 28 27 26 24 23 24 22 19 18 17 15 15 16 16 15 16 18 17 16 16 16 14 11 11 14 14 12 11 11 10 8 6 7 9 10 11 13 15 17 20 23 26 28 30 33
30 29 31 30 31 31 31 37 46 48 44 45 49 50 48 43 40 39 39 38 38 35 32 34 40 46 45 41 39 38 37 37 35 34 33 31 31 31 28 27 28 29 29 29 28 28 27 24 24 24 21 19 17 16 16 17 17 15 15 16 16 15 16 18 19 16 12 12 14 13 13 12 10 8 7 7 7 8 9 11 13 16 18 22 25 26 29 32
29 31 33 35 38 37 39 46 51 48 47 49 50 48 47 45 45 46 43 43 44 42 37 34 35 40 44 44 42 41 40 39 38 38 37 35 34 33 31 29 29 30 31 32 30 30 30 28 26 25 23 20 19 18 18 17 17 16 15 15 14 13 14 17 19 17 13 11 12 12 13 13 10 8 7 7 6 6 7 9 11 14 18 20 24 26 27 30
32 35 38 41 42 42 47 51 52 52 52 51 46 45 49 52 51 50 48 47 49 51 48 41 36 38 43 46 46 43 42 42 42 42 42 40 36 33 32 32 31 32 34 36 35 32 32 31 29 27 25 22 21 21 20 18 18 18 17 15 15 14 14 14 15 15 14 13 11 12 13 12 10 9 8 7 6 6 7 8 9 10 14 18 22 24 24 26
32 36 40 43 44 46 51 55 57 58 55 50 46 48 55 61 59 54 52 53 58 63 61 51 44 44 46 49 49 45 44 46 45 45 45 43 39 35 34 34 35 35 36 39 38 34 32 32 31 31 30 27 24 23 21 19 19 20 19 17 16 16 15 15 14 13 16 16 13 13 13 12 12 11 9 8 7 7 7 7 8 9 11 14 16 19 22 24
32 38 42 42 45 50 53 54 57 59 57 54 53 54 58 63 64 59 55 57 61 67 70 63 53 48 45 46 47 46 46 47 48 47 45 44 42 38 36 35 37 38 37 37 37 35 35 35 33 32 33 29 27 25 22 20 19 20 20 19 18 17 16 16 15 15 18 18 15 14 13 14 14 11 10 9 7 8 8 8 8 8 8 11 13 17 21 23
34 42 43 41 46 52 54 55 58 60 60 60 60 61 61 63 65 63 58 59 59 61 70 74 68 59 50 44 45 46 46 46 49 50 49 47 45 42 39 38 37 38 38 37 35 35 39 40 37 38 39 35 33 32 27 22 20 19 19 19 19 18 17 17 17 17 19 18 14 14 14 15 16 13 10 10 9 8 9 8 8 9 9 10 12 14 18 20
39 45 45 46 51 54 52 53 57 61 63 64 64 67 67 65 69 70 67 66 64 63 72 79 79 77 69 56 49 49 49 49 49 52 52 51 48 44 42 41 39 39 39 36 36 38 42 42 39 40 42 40 38 36 29 24 23 20 18 18 19 19 18 17 17 17 19 18 15 14 14 15 17 16 12 11 10 9 10 9 9 10 10 9 10 11 14 18
44 46 48 52 55 54 53 54 58 62 65 66 67 71 72 70 70 73 73 71 69 70 79 84 82 83 84 75 62 54 51 51 53 55 55 53 51 48 46 44 42 42 40 37 37 40 43 43 39 38 38 37 36 35 31 28 27 24 22 20 19 18 18 18 18 18 18 19 18 16 15 15 15 15 13 11 11 10 10 10 10 10 9 9 10 10 11 14
48 45 47 52 54 55 57 58 61 65 66 67 70 72 73 72 72 75 76 75 75 78 84 89 87 83 84 83 77 68 58 54 58 63 60 53 51 52 51 50 48 46 43 41 40 40 43 46 42 36 35 36 35 35 34 32 30 27 25 23 21 20 18 18 19 18 17 19 18 16 16 15 14 13 12 10 10 10 10 10 10 10 9 9 10 10 10 11
56 52 50 51 52 55 58 61 63 65 65 69 73 73 72 74 75 77 76 77 82 86 88 92 91 86 83 84 84 80 71 64 65 69 62 52 52 56 56 56 53 48 46 45 43 41 43 46 43 37 36 36 34 33 34 33 32 30 28 26 23 22 21 21 20 19 18 19 17 15 16 16 13 13 14 12 11 12 11 11 11 10 9 9 9 9 10 10
63 57 54 55 52 51 56 60 61 64 67 70 73 73 73 74 77 77 76 78 85 90 88 88 90 87 84 84 83 80 74 66 63 63 59 57 58 57 56 56 54 51 50 50 47 44 44 43 41 40 40 38 35 34 33 32 32 31 29 28 26 24 22 22 21 20 19 20 18 17 17 16 15 14 14 14 13 12 11 11 11 10 10 9 10 10 10 11
69 62 58 56 52 49 55 58 57 63 68 68 70 73 74 75 77 77 79 81 85 87 84 83 86 85 83 85 85 80 72 62 58 56 55 55 56 53 51 51 51 52 53 52 50 47 44 43 42 42 42 40 38 35 33 33 33 31 29 26 26 26 24 23 22 21 21 20 19 18 17 16 16 15 15 15 14 12 11 11 10 10 10 9 10 10 10 11